#timestamp,LO_Frequency,Hit,StdDev 
1455973215.1,286047013.0,P
1455973216.0,286047013.0,P
1455973235.8,286047017.1,Y
1455973255.6,286047009.0,P
1455973275.5,286047011.5,P
1455973295.3,286047014.4,P
1455973315.1,286047014.6,Y
1455973335.9,286047005.6,P
1455973355.7,286047005.9,N
1455973375.5,286047007.3,N
1455973395.4,286047006.7,N
1455973415.2,286047008.4,Y
1455973435.0,286046999.1,P
1455973435.9,286046999.1,N
1455973455.8,286046996.3,N
1455973475.6,286046999.4,N
1455973495.4,286046999.7,N
1455973515.3,286047004.2,N
1455973535.1,286047003.8,N
1455973536.0,286047003.8,N
1455973555.8,286047002.3,N
1455973575.7,286047000.3,N
1455973595.5,286047001.5,N
1455973615.3,286047006.7,N
1455973635.1,286047004.8,N
1455973655.9,286047006.7,N
1455973675.7,286047005.8,N
1455973695.5,286047005.5,N
1455973715.4,286046999.7,N
1455973735.2,286047000.0,N
1455973755.0,286047004.1,N
1455973755.9,286047004.1,N
1455973775.8,286047005.0,N
1455973795.6,286047008.8,N
1455973815.4,286047010.8,Y
1455973835.3,286047003.2,P
1455973855.1,286047004.3,P
1455973875.8,286047001.1,N
1455973895.7,286046998.0,N
1455973915.5,286046995.5,N
1455973935.3,286046995.5,N
1455973955.2,286046996.6,N
1455973975.9,286046999.2,N
1455973995.7,286046996.7,N
1455974015.6,286046998.6,N
1455974035.4,286046997.6,N
1455974055.2,286046996.0,N
1455974075.0,286046999.6,N
1455974076.0,286046999.6,N
1455974095.8,286046998.5,N
1455974115.6,286047000.9,N
1455974135.4,286046997.2,N
1455974155.3,286046995.7,N
1455974175.1,286046997.3,N
1455974195.8,286046998.9,N
1455974215.7,286046995.6,N
1455974235.5,286046993.6,N
1455974255.3,286046997.7,N
1455974275.2,286046998.7,N
1455974295.9,286046998.2,N
1455974315.7,286046993.7,N
1455974335.5,286046993.8,N
1455974355.4,286046995.9,N
1455974375.2,286046996.4,N
1455974395.0,286046993.4,N
1455974395.9,286046993.4,N
1455974415.8,286046992.2,Y
1455974435.6,286047000.2,P
1455974455.4,286047002.3,N
1455974475.3,286047001.6,N
1455974495.1,286047002.4,N
1455974515.8,286047003.8,N
1455974535.7,286047003.8,N
1455974555.5,286046999.9,N
1455974575.3,286046998.9,N
1455974595.2,286046996.8,N
1455974615.9,286046998.9,N
1455974635.7,286046996.0,N
1455974655.6,286046995.3,N
1455974675.4,286046995.8,N
1455974695.2,286046996.6,N
1455974715.0,286046998.8,N
1455974716.0,286046998.8,N
1455974735.8,286046997.5,N
1455974755.6,286046993.5,N
1455974775.5,286046990.4,Y
1455974795.3,286046995.6,P
1455974815.1,286046991.8,P
1455974835.8,286046992.3,N
1455974855.7,286046993.2,N
1455974875.5,286046991.0,Y
1455974895.3,286046996.4,P
1455974915.2,286046993.1,P
1455974935.0,286046993.7,P
1455974935.9,286046993.7,Y
1455974955.8,286047000.7,P
1455974975.6,286047000.4,N
1455974995.4,286047003.9,N
1455975015.2,286047003.9,N
1455975035.1,286047003.6,N
1455975036.0,286047003.6,N
1455975055.8,286047004.7,N
1455975075.6,286047007.5,N
1455975095.5,286047005.9,N
1455975115.3,286047003.6,N
1455975135.1,286047002.5,N
1455975155.9,286047004.2,N
1455975175.7,286047003.7,N
1455975195.5,286047004.5,N
1455975215.4,286047005.6,N
1455975235.2,286047005.6,N
1455975255.0,286047003.3,N
1455975255.9,286047003.3,N
1455975275.8,286047002.0,N
1455975295.6,286047003.7,N
1455975315.4,286047003.2,N
1455975335.2,286047000.4,N
1455975355.1,286047002.8,N
1455975356.0,286047002.8,N
1455975375.8,286047002.5,N
1455975395.6,286047002.7,N
1455975415.5,286047000.3,N
1455975435.3,286047000.7,N
1455975455.1,286046995.7,N
1455975475.9,286046995.4,N
1455975495.7,286046999.4,N
1455975515.5,286047002.1,N
1455975535.4,286047005.8,N
1455975555.2,286047004.0,N
1455975575.0,286047002.5,N
1455975575.9,286047002.5,N
1455975595.8,286047002.0,N
1455975615.6,286047001.1,N
1455975635.4,286046999.9,N
1455975655.3,286047001.9,N
1455975675.1,286046999.8,N
1455975676.0,286046999.8,N
1455975695.8,286047003.6,N
1455975715.6,286047004.3,N
1455975735.5,286047001.1,N
1455975755.3,286047000.8,N
1455975775.1,286047000.1,N
1455975795.9,286047004.2,N
1455975815.7,286047000.2,N
1455975835.5,286047000.4,N
1455975855.4,286047003.8,N
1455975875.2,286047001.0,N
1455975895.0,286046996.8,N
1455975895.9,286046996.8,N
1455975915.8,286046997.1,N
1455975935.6,286046997.8,N
1455975955.4,286046997.2,N
1455975975.3,286046999.7,N
1455975995.1,286047001.5,N
1455975996.0,286047001.5,N
1455976015.8,286047003.6,N
1455976035.7,286047003.4,N
1455976055.5,286047005.8,N
1455976075.3,286047004.3,N
1455976095.2,286047000.3,N
1455976115.9,286047000.8,N
1455976135.7,286046997.8,N
1455976155.5,286046999.1,N
1455976175.4,286046995.2,N
1455976195.2,286046997.5,N
1455976215.0,286047000.5,N
1455976215.9,286047000.5,N
1455976235.8,286047003.6,N
1455976255.6,286047005.5,N
1455976275.4,286047007.4,N
1455976295.3,286047007.3,N
1455976315.1,286047004.0,N
1455976335.8,286047002.2,N
1455976355.7,286047002.8,N
1455976375.5,286047003.9,N
1455976395.3,286047007.5,N
1455976415.2,286047006.0,N
1455976435.9,286047001.6,N
1455976455.7,286047001.1,N
1455976475.6,286046995.2,N
1455976495.4,286046994.2,N
1455976515.2,286046993.3,N
1455976535.0,286046995.1,N
1455976535.9,286046995.1,N
1455976555.8,286046995.5,N
1455976575.6,286046995.3,N
1455976595.4,286046995.6,N
1455976615.3,286046993.3,N
1455976635.1,286046991.8,N
1455976655.8,286046997.8,N
1455976675.7,286046995.0,N
1455976695.5,286046995.5,N
1455976715.3,286046997.6,N
1455976735.2,286046992.3,N
1455976755.9,286046987.1,N
1455976775.7,286046988.6,N
1455976795.6,286046992.4,N
